Regional Weather Roundup
Issued by NWS Sioux Falls, SD

Home | Current Version | Previous Version | Graphics & Text | Print | Product List | Glossary Off
Versions: 1 2 3 4 5 6 7 8 9 10 11 12 13 14 15 16 17 18 19 20 21 22 23 24 25 26 27 28 29 30 31 32 33 34 35 36 37 38 39 40 41 42 43 44 45 46 47 48 49 50

000
ASUS43 KFSD 111210
RWRFSD

WEATHER ROUNDUP FOR SE SOUTH DAKOTA/SW MINNESOTA/NW IOWA
NATIONAL WEATHER SERVICE SIOUX FALLS SD
600 AM CST THU FEB 11 2016

NOTE: "FAIR" INDICATES FEW OR NO CLOUDS BELOW 12,000 FEET WITH NO
SIGNIFICANT WEATHER AND OR OBSTRUCTIONS TO VISIBILITY.


SDZ038>040-050-052>070-111300-
SOUTHEAST SOUTH DAKOTA

CITY           SKY/WX    TMP DP  RH WIND       PRES   REMARKS
BROOKINGS      CLOUDY    11   7  84 SE6       30.22S WCI   1
CHAMBERLAIN    CLOUDY    21  20  94 SE8       30.19S WCI  12
6HR MIN TEMP:  21; 6HR MAX TEMP:  22;

HURON          CLOUDY    16  11  80 S7        30.23F WCI   6
6HR MIN TEMP:  15; 6HR MAX TEMP:  16;

MADISON        CLOUDY    10   9  92 S6        30.22S WCI   1
MITCHELL       CLOUDY    18  13  80 SE9       30.24S WCI   7
6HR MIN TEMP:  18; 6HR MAX TEMP:  19;

SIOUX FALLS    CLOUDY    13   5  70 SE7       30.25S WCI   3
6HR MIN TEMP:  13; 6HR MAX TEMP:  14;

WINNER         CLOUDY    27  22  81 SE9       30.16R WCI  18
YANKTON        CLOUDY    16   9  73 SE6       30.26S WCI   7
$$

MNZ071-072-080-081-089-090-097-098-111300-
SOUTHWEST MINNESOTA

CITY           SKY/WX    TMP DP  RH WIND       PRES   REMARKS
FAIRMONT       CLOUDY    -2  -9  71 CALM      30.28R
JACKSON        CLOUDY     3  -2  78 CALM      30.27F
LUVERNE        CLOUDY    14   9  79 E6        30.26S WCI   5
MARSHALL       CLOUDY     0  -4  83 SW5       30.29R WCI -10
6HR MIN TEMP:  -3; 6HR MAX TEMP:  11;

MONTEVIDEO     CLOUDY     1  -2  85 CALM      30.31S
PIPESTONE      CLOUDY    14   3  62 SE5       30.22S WCI   6
REDWOOD FALLS  PTCLDY     1  -2  87 CALM      30.30S
TRACY          CLOUDY     1  -3  85 CALM      30.27S
WINDOM         CLOUDY    -8  -9  92 CALM      30.26F
WORTHINGTON    CLOUDY     9   1  72 E3        30.25F
$$

IAZ001>003-012>014-020>022-031-032-NEZ013-014-SDZ071-111300-
NORTHWEST IOWA

CITY           SKY/WX    TMP DP  RH WIND       PRES   REMARKS
CHEROKEE       CLOUDY    13   6  73 E6        30.28F WCI   4
DENISON        CLOUDY    12   5  73 E8        30.26F WCI   1
ESTHERVILLE    CLOUDY    -2  -6  83 N5        30.28S WCI -12
LE MARS        CLOUDY    14   7  73 SE5       30.29S WCI   6
ORANGE CITY    CLOUDY    12   7  79 CALM      30.26S
SHELDON        CLOUDY    12   5  73 E7        30.25S WCI   2
SIOUX CITY     CLOUDY    17   9  70 E3        30.30R
6HR MIN TEMP:  17; 6HR MAX TEMP:  19;

SPENCER        CLOUDY    11   3  70 NE9       30.27F WCI  -2
6HR MIN TEMP:  11; 6HR MAX TEMP:  12;

STORM LAKE     CLOUDY    12   7  79 E5        30.27S WCI   4
$$

ABBREVIATIONS USED IN REMARKS
   TC - TEMPERATURE IN CELSIUS
  WCI - WIND CHILL INDEX
   HX - HEAT INDEX
  VSB - VISIBILITY




USA.gov is the U.S. government's official web portal to all federal, state and local government web resources and services.